Flag for Switzerland Weather past 2 weeks in Buchs, St. Gallen, Switzerland

Now
33 °F

Drizzle. Overcast.


Feels Like: 33 °F
Forecast: 33 / 38 °F
Wind: No wind

Location: Vaduz

Current Time: Jan 29, 2015 at 11:24:23 AM

Latest Report: Jan 29, 2015 at 10:00 AM


Visibility: 1 mi

Pressure: 29.65 "Hg

Humidity: 97%

Dew point: 32 °F

Location of BuchsLocation

Historic Weather in Buchs — Graph

°F

Buchs temperature yesterday

Maximum temperature yesterday: 39 °F (at 2:00 PM)
Minimum temperature yesterday: 31 °F (at 7:00 AM)
Average temperature yesterday: 35 °F

Past Weeks' High & Low Weather Summary

 TemperatureHumidityPressure
High60 °F (Jan 16, 2:00 PM)98% (Jan 17, 9:00 AM)30.48 "Hg (Jan 17, 9:00 AM)
Low28 °F (Jan 26, 9:00 AM)26% (Jan 15, 1:00 PM)29.61 "Hg (Jan 16, 7:00 PM)
Average36 °F78%30.05 "Hg
* Reported Jan 14 10:00 AM — Jan 29 10:00 AM, Buchs, Weather by CustomWeather, © 2014

Note: Actual official high and low records may vary slightly from our data, if they occured in-between our weather recording intervals... More about our weather records

Advertising

Buchs weather history for previous 24 hours

 ConditionsComfort  
Time TempWeatherWind HumidityBarometerVisibility
10:00 AM
Jan 29
33 °FDrizzle. Overcast.No wind97%29.65 "Hg1 mi
9:00 AM32 °FChilly.1 mph98%29.66 "HgN/A
8:00 AM33 °FChilly.1 mph97%29.66 "HgN/A
7:00 AM32 °FDrizzle. Overcast.No wind98%29.67 "Hg3 mi
6:00 AM33 °FChilly.1 mph97%29.67 "HgN/A
5:00 AM33 °FChilly.1 mph95%29.68 "HgN/A
4:00 AM33 °FFog.8 mph88%29.67 "Hg4 mi
3:00 AM34 °FChilly.6 mph82%29.68 "HgN/A
2:00 AM36 °FChilly.7 mph57%29.67 "HgN/A
1:00 AM35 °FChilly.10 mph72%29.69 "HgN/A
12:00 AM36 °FChilly.7 mph56%29.72 "HgN/A
11:00 PM
Jan 28
36 °FChilly.14 mph54%29.73 "HgN/A
10:00 PM37 °FFog.14 mph55%29.78 "Hg4 mi
9:00 PM36 °FChilly.10 mph57%29.83 "HgN/A
8:00 PM37 °FChilly.6 mph58%29.87 "HgN/A
7:00 PM37 °FFog.6 mph56%29.90 "Hg4 mi
6:00 PM36 °FChilly.6 mph62%29.93 "HgN/A
5:00 PM38 °FChilly.5 mph54%29.94 "HgN/A
4:00 PM39 °FPartly sunny.8 mph58%29.98 "Hg5 mi
3:00 PM38 °FChilly.9 mph58%30.04 "HgN/A
2:00 PM39 °FChilly.5 mph56%30.06 "HgN/A
1:00 PM37 °FOvercast.3 mph61%30.10 "Hg5 mi
12:00 PM36 °FChilly.6 mph70%30.16 "HgN/A
11:00 AM35 °FChilly.5 mph78%30.19 "HgN/A
Weather by CustomWeather, © 2014

See weather overviewHow to use our weather pages